Time,TemperatureF,DewpointF,PressureIn,WindDirection,WindDirectionDegrees,WindSpeedMPH,WindSpeedGustMPH,Humidity,HourlyPrecipIn,Conditions,Clouds,dailyrainin,SoftwareType,DateUTC
2013-03-20 00:05:00,59.4,39.0,29.99,NNE,29,3.0,5.0,47,0.00,,,0.00,weatherlink.com 1.10,2013-03-20 05:05:00,
2013-03-20 00:21:00,58.9,39.0,29.99,ENE,72,0.0,2.0,48,0.00,,,0.00,weatherlink.com 1.10,2013-03-20 05:21:00,
2013-03-20 00:35:00,58.7,39.0,30.00,North,354,0.0,1.0,49,0.00,,,0.00,weatherlink.com 1.10,2013-03-20 05:35:00,
2013-03-20 00:50:00,58.3,41.0,30.01,North,354,0.0,1.0,52,0.00,,,0.00,weatherlink.com 1.10,2013-03-20 05:50:00,
2013-03-20 01:05:00,57.8,40.0,30.01,NE,47,1.0,2.0,51,0.00,,,0.00,weatherlink.com 1.10,2013-03-20 06:05:00,
2013-03-20 01:20:00,57.7,39.0,30.01,ENE,58,1.0,3.0,51,0.00,,,0.00,weatherlink.com 1.10,2013-03-20 06:20:00,
2013-03-20 01:35:00,57.5,40.0,30.02,NE,39,1.0,3.0,52,0.00,,,0.00,weatherlink.com 1.10,2013-03-20 06:35:00,
2013-03-20 01:50:00,57.0,40.0,30.02,NE,39,0.0,1.0,54,0.00,,,0.00,weatherlink.com 1.10,2013-03-20 06:50:00,
2013-03-20 02:05:00,56.4,41.0,30.01,NNE,32,1.0,4.0,57,0.00,,,0.00,weatherlink.com 1.10,2013-03-20 07:05:00,
2013-03-20 02:20:00,56.0,40.0,30.00,North,1,3.0,4.0,55,0.00,,,0.00,weatherlink.com 1.10,2013-03-20 07:20:00,
2013-03-20 02:35:00,55.9,40.0,30.02,NE,48,1.0,5.0,55,0.00,,,0.00,weatherlink.com 1.10,2013-03-20 07:35:00,
2013-03-20 02:50:00,55.5,40.0,30.02,NE,49,1.0,3.0,57,0.00,,,0.00,weatherlink.com 1.10,2013-03-20 07:50:00,
2013-03-20 03:05:00,55.2,40.0,30.02,ENE,68,0.0,3.0,56,0.00,,,0.00,weatherlink.com 1.10,2013-03-20 08:05:00,
2013-03-20 03:20:00,55.3,39.0,30.02,NE,38,1.0,4.0,54,0.00,,,0.00,weatherlink.com 1.10,2013-03-20 08:20:00,
2013-03-20 03:35:00,55.2,39.0,30.03,East,96,0.0,2.0,55,0.00,,,0.00,weatherlink.com 1.10,2013-03-20 08:35:00,
2013-03-20 03:50:00,55.0,39.0,30.03,ENE,61,1.0,4.0,55,0.00,,,0.00,weatherlink.com 1.10,2013-03-20 08:50:00,
2013-03-20 04:05:00,54.9,39.0,30.03,NNW,338,0.0,3.0,55,0.00,,,0.00,weatherlink.com 1.10,2013-03-20 09:05:00,
2013-03-20 04:20:00,54.6,38.0,30.03,ENE,58,1.0,7.0,54,0.00,,,0.00,weatherlink.com 1.10,2013-03-20 09:20:00,
2013-03-20 04:35:00,54.2,38.0,30.05,SE,137,1.0,6.0,55,0.00,,,0.00,weatherlink.com 1.10,2013-03-20 09:35:00,
2013-03-20 04:51:00,54.1,38.0,30.04,ENE,66,1.0,6.0,54,0.00,,,0.00,weatherlink.com 1.10,2013-03-20 09:51:00,
2013-03-20 05:05:00,53.9,37.0,30.05,NNE,22,2.0,5.0,54,0.00,,,0.00,weatherlink.com 1.10,2013-03-20 10:05:00,
2013-03-20 05:20:00,53.7,37.0,30.05,NNE,28,1.0,7.0,54,0.00,,,0.00,weatherlink.com 1.10,2013-03-20 10:20:00,
2013-03-20 05:35:00,53.6,37.0,30.07,North,352,1.0,4.0,54,0.00,,,0.00,weatherlink.com 1.10,2013-03-20 10:35:00,
2013-03-20 05:51:00,53.5,37.0,30.08,ENE,63,3.0,7.0,54,0.00,,,0.00,weatherlink.com 1.10,2013-03-20 10:51:00,
2013-03-20 06:06:00,53.2,37.0,30.09,ENE,63,4.0,7.0,54,0.00,,,0.00,weatherlink.com 1.10,2013-03-20 11:06:00,
2013-03-20 06:21:00,53.1,36.0,30.10,NE,40,0.0,3.0,53,0.00,,,0.00,weatherlink.com 1.10,2013-03-20 11:21:00,
2013-03-20 06:36:00,52.9,36.0,30.11,SE,136,0.0,1.0,54,0.00,,,0.00,weatherlink.com 1.10,2013-03-20 11:36:00,
2013-03-20 07:51:00,51.4,37.0,30.08,NNE,15,0.0,2.0,58,0.00,,,0.00,weatherlink.com 1.10,2013-03-20 12:51:00,
2013-03-20 08:06:00,51.4,37.0,30.07,ENE,77,1.0,3.0,59,0.00,,,0.00,weatherlink.com 1.10,2013-03-20 13:06:00,
2013-03-20 09:06:00,51.0,38.0,30.13,NNE,26,0.0,6.0,61,0.00,,,0.00,weatherlink.com 1.10,2013-03-20 14:06:00,
2013-03-20 09:36:00,51.2,38.0,30.12,North,354,0.0,2.0,61,0.00,,,0.00,weatherlink.com 1.10,2013-03-20 14:36:00,
2013-03-20 09:51:00,51.4,38.0,30.14,North,358,0.0,3.0,61,0.00,,,0.00,weatherlink.com 1.10,2013-03-20 14:51:00,
2013-03-20 10:06:00,52.0,38.0,30.14,NE,49,1.0,4.0,59,0.00,,,0.00,weatherlink.com 1.10,2013-03-20 15:06:00,
2013-03-20 10:21:00,52.3,38.0,30.14,NNW,347,1.0,3.0,58,0.00,,,0.00,weatherlink.com 1.10,2013-03-20 15:21:00,
2013-03-20 10:36:00,53.0,38.0,30.14,NW,326,2.0,3.0,57,0.00,,,0.00,weatherlink.com 1.10,2013-03-20 15:36:00,
2013-03-20 10:51:00,53.5,37.0,30.13,NNW,345,1.0,3.0,55,0.00,,,0.00,weatherlink.com 1.10,2013-03-20 15:51:00,
2013-03-20 11:06:00,53.9,38.0,30.14,North,359,0.0,3.0,55,0.00,,,0.00,weatherlink.com 1.10,2013-03-20 16:06:00,
2013-03-20 11:21:00,54.5,38.0,30.14,WNW,293,0.0,3.0,55,0.00,,,0.00,weatherlink.com 1.10,2013-03-20 16:21:00,
2013-03-20 11:36:00,54.6,39.0,30.14,NNW,338,2.0,3.0,56,0.00,,,0.00,weatherlink.com 1.10,2013-03-20 16:36:00,
2013-03-20 11:51:00,54.7,39.0,30.14,WNW,295,1.0,4.0,56,0.00,,,0.00,weatherlink.com 1.10,2013-03-20 16:51:00,
2013-03-20 12:06:00,55.6,41.0,30.15,North,349,3.0,3.0,58,0.00,,,0.00,weatherlink.com 1.10,2013-03-20 17:06:00,
2013-03-20 12:21:00,55.9,40.0,30.15,North,6,5.0,6.0,55,0.00,,,0.00,weatherlink.com 1.10,2013-03-20 17:21:00,
2013-03-20 12:36:00,57.2,40.0,30.14,North,353,1.0,5.0,54,0.00,,,0.00,weatherlink.com 1.10,2013-03-20 17:36:00,
2013-03-20 12:51:00,58.2,40.0,30.14,West,281,2.0,6.0,51,0.00,,,0.00,weatherlink.com 1.10,2013-03-20 17:51:00,
2013-03-20 13:06:00,59.7,40.0,30.13,NNW,338,1.0,7.0,49,0.00,,,0.00,weatherlink.com 1.10,2013-03-20 18:06:00,
2013-03-20 13:21:00,60.5,39.0,30.11,ENE,72,3.0,7.0,46,0.00,,,0.00,weatherlink.com 1.10,2013-03-20 18:21:00,
2013-03-20 13:36:00,61.9,39.0,30.11,WNW,298,3.0,9.0,43,0.00,,,0.00,weatherlink.com 1.10,2013-03-20 18:36:00,
2013-03-20 13:51:00,62.6,38.0,30.09,West,280,3.0,11.0,40,0.00,,,0.00,weatherlink.com 1.10,2013-03-20 18:51:00,
2013-03-20 14:06:00,64.3,38.0,30.08,NW,315,2.0,8.0,38,0.00,,,0.00,weatherlink.com 1.10,2013-03-20 19:06:00,
2013-03-20 14:21:00,64.5,36.0,30.07,NW,314,2.0,8.0,35,0.00,,,0.00,weatherlink.com 1.10,2013-03-20 19:21:00,
2013-03-20 14:37:00,65.2,36.0,30.06,NE,37,2.0,8.0,34,0.00,,,0.00,weatherlink.com 1.10,2013-03-20 19:37:00,
2013-03-20 14:52:00,65.5,34.0,30.05,North,355,3.0,9.0,31,0.00,,,0.00,weatherlink.com 1.10,2013-03-20 19:52:00,
2013-03-20 15:07:00,65.9,34.0,30.05,NW,315,3.0,10.0,31,0.00,,,0.00,weatherlink.com 1.10,2013-03-20 20:07:00,
2013-03-20 15:22:00,66.5,32.0,30.05,NNW,331,2.0,8.0,28,0.00,,,0.00,weatherlink.com 1.10,2013-03-20 20:22:00,
2013-03-20 15:37:00,66.3,30.0,30.04,WNW,303,3.0,10.0,26,0.00,,,0.00,weatherlink.com 1.10,2013-03-20 20:37:00,
2013-03-20 15:52:00,67.0,31.0,30.03,SSE,159,2.0,13.0,26,0.00,,,0.00,weatherlink.com 1.10,2013-03-20 20:52:00,
2013-03-20 16:07:00,66.8,30.0,30.02,ENE,62,6.0,8.0,25,0.00,,,0.00,weatherlink.com 1.10,2013-03-20 21:07:00,
2013-03-20 16:22:00,66.8,31.0,30.02,NW,321,3.0,10.0,26,0.00,,,0.00,weatherlink.com 1.10,2013-03-20 21:22:00,
2013-03-20 16:37:00,67.1,30.0,30.02,NE,49,1.0,7.0,25,0.00,,,0.00,weatherlink.com 1.10,2013-03-20 21:37:00,
2013-03-20 16:52:00,67.3,30.0,30.01,East,84,3.0,10.0,25,0.00,,,0.00,weatherlink.com 1.10,2013-03-20 21:52:00,
2013-03-20 17:07:00,67.3,30.0,30.01,WSW,249,3.0,7.0,25,0.00,,,0.00,weatherlink.com 1.10,2013-03-20 22:07:00,
2013-03-20 17:22:00,66.6,30.0,30.02,WNW,285,1.0,8.0,25,0.00,,,0.00,weatherlink.com 1.10,2013-03-20 22:22:00,
2013-03-20 17:37:00,66.4,29.0,30.02,ENE,67,4.0,9.0,25,0.00,,,0.00,weatherlink.com 1.10,2013-03-20 22:37:00,
2013-03-20 17:52:00,66.4,28.0,30.01,North,356,3.0,4.0,24,0.00,,,0.00,weatherlink.com 1.10,2013-03-20 22:52:00,
2013-03-20 18:07:00,65.7,27.0,30.02,NNW,335,1.0,5.0,23,0.00,,,0.00,weatherlink.com 1.10,2013-03-20 23:07:00,
2013-03-20 18:22:00,65.3,27.0,30.02,NW,325,3.0,6.0,24,0.00,,,0.00,weatherlink.com 1.10,2013-03-20 23:22:00,
2013-03-20 18:37:00,64.8,28.0,30.02,NW,322,1.0,5.0,25,0.00,,,0.00,weatherlink.com 1.10,2013-03-20 23:37:00,
2013-03-20 18:52:00,63.1,27.0,30.02,NNW,341,1.0,6.0,26,0.00,,,0.00,weatherlink.com 1.10,2013-03-20 23:52:00,
2013-03-20 19:07:00,61.4,28.0,30.03,NW,323,1.0,4.0,28,0.00,,,0.00,weatherlink.com 1.10,2013-03-21 00:07:00,
2013-03-20 19:22:00,59.9,27.0,30.03,NW,304,0.0,4.0,29,0.00,,,0.00,weatherlink.com 1.10,2013-03-21 00:22:00,
2013-03-20 19:37:00,58.8,29.0,30.03,WNW,293,0.0,2.0,32,0.00,,,0.00,weatherlink.com 1.10,2013-03-21 00:37:00,
2013-03-20 19:52:00,57.5,30.0,30.03,WNW,285,0.0,1.0,35,0.00,,,0.00,weatherlink.com 1.10,2013-03-21 00:52:00,
2013-03-20 20:07:00,56.5,29.0,30.04,WNW,294,0.0,1.0,35,0.00,,,0.00,weatherlink.com 1.10,2013-03-21 01:07:00,
2013-03-20 20:22:00,55.9,30.0,30.03,WNW,285,0.0,1.0,37,0.00,,,0.00,weatherlink.com 1.10,2013-03-21 01:22:00,
2013-03-20 20:37:00,53.8,29.0,30.03,WNW,285,0.0,0.0,39,0.00,,,0.00,weatherlink.com 1.10,2013-03-21 01:37:00,
2013-03-20 20:52:00,53.4,30.0,30.03,WNW,283,0.0,1.0,41,0.00,,,0.00,weatherlink.com 1.10,2013-03-21 01:52:00,
2013-03-20 21:07:00,52.7,31.0,30.04,West,281,0.0,1.0,43,0.00,,,0.00,weatherlink.com 1.10,2013-03-21 02:07:00,
2013-03-20 21:22:00,51.2,31.0,30.04,WNW,301,0.0,1.0,46,0.00,,,0.00,weatherlink.com 1.10,2013-03-21 02:22:00,
2013-03-20 21:37:00,49.9,31.0,30.05,WNW,295,0.0,0.0,48,0.00,,,0.00,weatherlink.com 1.10,2013-03-21 02:37:00,
2013-03-20 21:52:00,49.1,32.0,30.05,WNW,295,0.0,0.0,53,0.00,,,0.00,weatherlink.com 1.10,2013-03-21 02:52:00,
2013-03-20 22:07:00,48.1,31.0,30.05,WNW,295,0.0,0.0,51,0.00,,,0.00,weatherlink.com 1.10,2013-03-21 03:07:00,
2013-03-20 22:22:00,47.4,33.0,30.06,WNW,295,0.0,0.0,57,0.00,,,0.00,weatherlink.com 1.10,2013-03-21 03:22:00,
2013-03-20 22:37:00,47.1,32.0,30.05,WNW,294,0.0,0.0,56,0.00,,,0.00,weatherlink.com 1.10,2013-03-21 03:37:00,
2013-03-20 22:52:00,46.8,32.0,30.05,WNW,298,0.0,0.0,56,0.00,,,0.00,weatherlink.com 1.10,2013-03-21 03:52:00,
2013-03-20 23:07:00,46.4,33.0,30.05,West,274,0.0,0.0,61,0.00,,,0.00,weatherlink.com 1.10,2013-03-21 04:07:00,
2013-03-20 23:22:00,45.9,34.0,30.05,West,270,0.0,0.0,64,0.00,,,0.00,weatherlink.com 1.10,2013-03-21 04:22:00,
2013-03-20 23:37:00,44.9,33.0,30.05,West,269,0.0,0.0,63,0.00,,,0.00,weatherlink.com 1.10,2013-03-21 04:37:00,
2013-03-20 23:52:00,44.1,33.0,30.04,WNW,288,0.0,1.0,64,0.00,,,0.00,weatherlink.com 1.10,2013-03-21 04:52:00,